TimeEST,TemperatureF,Dew PointF,Humidity,Sea Level PressureIn,VisibilityMPH,Wind Direction,Wind SpeedMPH,Gust SpeedMPH,PrecipitationIn,Events,Conditions,WindDirDegrees,DateUTC
12:11 AM,48.2,44.6,87,29.86,4.0,NNW,5.8,-,0.00,Rain,Light Rain,340,2013-12-03 05:11:00
12:33 AM,46.4,44.6,93,29.86,1.0,Calm,Calm,-,0.01,Rain,Light Rain,0,2013-12-03 05:33:00
1:00 AM,46.4,44.6,93,29.83,2.0,SE,8.1,-,0.00,Rain,Light Rain,130,2013-12-03 06:00:00
1:17 AM,46.4,44.6,93,29.84,4.0,East,3.5,-,0.02,,Light Drizzle,90,2013-12-03 06:17:00
1:31 AM,46.4,44.6,93,29.84,2.0,ESE,4.6,-,0.03,Rain,Light Rain,120,2013-12-03 06:31:00
2:07 AM,46.4,44.6,93,29.85,1.0,NE,3.5,-,0.01,Rain,Light Rain,50,2013-12-03 07:07:00
2:27 AM,46.4,44.6,93,29.85,1.5,Calm,Calm,-,0.01,Rain,Light Rain,0,2013-12-03 07:27:00
2:53 AM,46.9,44.1,90,29.85,1.5,Calm,Calm,-,0.01,Rain,Light Rain,0,2013-12-03 07:53:00
3:14 AM,46.4,44.6,93,29.84,1.0,ENE,3.5,-,0.00,Rain,Light Rain,60,2013-12-03 08:14:00
3:53 AM,46.9,45.0,93,29.85,1.0,NE,3.5,-,0.01,Rain,Light Rain,50,2013-12-03 08:53:00
4:53 AM,46.9,45.0,93,29.85,1.0,NE,3.5,-,0.00,,Light Drizzle,50,2013-12-03 09:53:00
5:53 AM,46.9,45.0,93,29.85,1.2,NE,4.6,-,0.00,,Light Drizzle,50,2013-12-03 10:53:00
6:00 AM,46.4,44.6,93,29.84,1.8,East,4.6,-,0.00,,Overcast,80,2013-12-03 11:00:00
6:12 AM,46.4,44.6,93,29.84,1.2,NE,3.5,-,0.00,,Overcast,40,2013-12-03 11:12:00
6:53 AM,46.9,45.0,93,29.85,2.0,Calm,Calm,-,0.00,,Overcast,0,2013-12-03 11:53:00
7:22 AM,46.4,44.6,93,29.84,1.8,Calm,Calm,-,N/A,,Overcast,0,2013-12-03 12:22:00
7:34 AM,46.4,44.6,93,29.84,1.0,Calm,Calm,-,N/A,,Overcast,0,2013-12-03 12:34:00
7:53 AM,46.9,45.0,93,29.85,1.2,Calm,Calm,-,N/A,,Overcast,0,2013-12-03 12:53:00
8:36 AM,48.2,44.6,87,29.86,1.5,Calm,Calm,-,N/A,,Overcast,0,2013-12-03 13:36:00
8:53 AM,48.0,46.0,93,29.87,1.5,Calm,Calm,-,N/A,,Overcast,0,2013-12-03 13:53:00
9:29 AM,48.2,46.4,93,29.87,2.0,NE,4.6,-,N/A,,Mostly Cloudy,40,2013-12-03 14:29:00
9:38 AM,50.0,46.4,87,29.88,3.0,NE,3.5,-,N/A,,Mostly Cloudy,50,2013-12-03 14:38:00
9:53 AM,50.0,46.0,86,29.88,3.0,NNE,5.8,-,N/A,,Overcast,20,2013-12-03 14:53:00
10:53 AM,52.0,48.0,86,29.88,4.0,North,3.5,-,N/A,,Overcast,350,2013-12-03 15:53:00
11:53 AM,54.0,48.9,83,29.86,5.0,North,3.5,-,N/A,,Haze,360,2013-12-03 16:53:00
12:53 PM,55.9,48.9,77,29.83,9.0,North,3.5,-,N/A,,Overcast,350,2013-12-03 17:53:00
1:53 PM,55.9,48.9,77,29.83,10.0,Calm,Calm,-,N/A,,Overcast,0,2013-12-03 18:53:00
2:53 PM,55.9,50.0,80,29.83,9.0,ENE,4.6,-,N/A,,Overcast,60,2013-12-03 19:53:00
3:53 PM,57.0,50.0,77,29.83,10.0,North,3.5,-,N/A,,Overcast,10,2013-12-03 20:53:00
4:53 PM,55.9,50.0,80,29.83,10.0,ENE,3.5,-,N/A,,Overcast,60,2013-12-03 21:53:00
5:53 PM,54.0,48.9,83,29.84,10.0,North,3.5,-,N/A,,Mostly Cloudy,360,2013-12-03 22:53:00
6:53 PM,55.0,50.0,83,29.84,10.0,Calm,Calm,-,N/A,,Overcast,0,2013-12-03 23:53:00
7:53 PM,53.1,48.9,86,29.86,9.0,Calm,Calm,-,N/A,,Mostly Cloudy,0,2013-12-04 00:53:00
8:53 PM,54.0,48.9,83,29.86,9.0,WNW,5.8,-,N/A,,Overcast,290,2013-12-04 01:53:00
9:53 PM,52.0,48.9,89,29.86,6.0,Calm,Calm,-,N/A,,Overcast,0,2013-12-04 02:53:00
10:53 PM,53.1,48.9,86,29.87,7.0,Calm,Calm,-,N/A,,Overcast,0,2013-12-04 03:53:00
11:53 PM,51.1,48.9,92,29.88,4.0,Calm,Calm,-,N/A,,Mostly Cloudy,0,2013-12-04 04:53:00